Location: Ch�teau-Arnoux
(44.0814°N, 6.0027°E)
Time: 05:15:55
(UTC+00:00)

Cosmos 1515 Rocket - Pass Details

Date: 15 November 2019
Orbit: 605 x 631 km, 82.5° (Epoch: 10 December)

Event Time Altitude Azimuth Distance (km) Brightness Sun altitude
Rises 05:29:22 0° 351° (N) 2,876 6.7 -11.1°
Reaches altitude 10° 05:31:36 10° 352° (N) 1,965 5.9 -10.8°
Maximum altitude 05:35:56 86° 78° (ENE) 613 3.6 -10.0°
Drops below altitude 10° 05:40:16 10° 172° (S) 1,949 6.5 -9.3°
Sets 05:42:28 0° 172° (S) 2,849 7.3 -8.9°
